| time (UTC) | temp C | wind direction | speed KPH | gust KPH | rain 1hr cm | rain 24hr cm | rain mn cm | humidity % | barometer mb |
| 20260505005147 | 25 | 294 | 3.2 | 8.0 | 0.00 | 0.00 | 0.00 | 32 | |
| 20260505004644 | 25 | 260 | 3.2 | 20.9 | 0.00 | 0.00 | 0.00 | 31 | |
| 20260505004140 | 26 | 292 | 3.2 | 9.7 | 0.00 | 0.00 | 0.00 | 32 | |
| 20260505003638 | 26 | 211 | 8.0 | 12.9 | 0.00 | 0.00 | 0.00 | 31 | |
| 20260505003135 | 25 | 172 | 6.4 | 17.7 | 0.00 | 0.00 | 0.00 | 31 | |
| 20260505002631 | 26 | 146 | 3.2 | 12.9 | 0.00 | 0.00 | 0.00 | 30 | |
| 20260505002129 | 26 | 271 | 1.6 | 9.7 | 0.00 | 0.00 | 0.00 | 31 | |
| 20260505001626 | 26 | 260 | 8.0 | 19.3 | 0.00 | 0.00 | 0.00 | 30 | |
| 20260505001124 | 26 | 337 | 6.4 | 16.1 | 0.00 | 0.00 | 0.00 | 30 | |
| 20260505000621 | 26 | 190 | 4.8 | 17.7 | 0.00 | 0.00 | 0.00 | 30 | |
| 20260505000119 | 26 | 231 | 6.4 | 11.3 | 0.00 | 0.00 | 0.00 | 30 | |
| 20260504235615 | 26 | 58 | 3.2 | 11.3 | 0.00 | 0.00 | 0.00 | 30 | |
| 20260504235111 | 26 | 220 | 1.6 | 14.5 | 0.00 | 0.00 | 0.00 | 31 | |
| 20260504234609 | 26 | 252 | 14.5 | 17.7 | 0.00 | 0.00 | 0.00 | 30 | |
| 20260504234106 | 26 | 218 | 4.8 | 14.5 | 0.00 | 0.00 | 0.00 | 31 | |
| 20260504233601 | 26 | 287 | 6.4 | 17.7 | 0.00 | 0.00 | 0.00 | 30 | |
| 20260504233058 | 26 | 271 | 3.2 | 17.7 | 0.00 | 0.00 | 0.00 | 31 | |
| 20260504232555 | 26 | 253 | 4.8 | 14.5 | 0.00 | 0.00 | 0.00 | 30 | |
| 20260504232052 | 27 | 253 | 4.8 | 14.5 | 0.00 | 0.00 | 0.00 | 30 | |
| 20260504231549 | 27 | 229 | 4.8 | 9.7 | 0.00 | 0.00 | 0.00 | 30 | |
| 20260504231045 | 26 | 323 | 4.8 | 17.7 | 0.00 | 0.00 | 0.00 | 29 | |
| 20260504230541 | 27 | 273 | 16.1 | 27.4 | 0.00 | 0.00 | 0.00 | 28 | |
| 20260504230041 | 27 | 262 | 4.8 | 20.9 | 0.00 | 0.00 | 0.00 | 28 | |
| 20260504225537 | 28 | 237 | 3.2 | 9.7 | 0.00 | 0.00 | 0.00 | 28 | |
| 20260504225034 | 27 | 66 | 0.0 | 22.5 | 0.00 | 0.00 | 0.00 | 28 | |
| 20260504224531 | 27 | 217 | 6.4 | 8.0 | 0.00 | 0.00 | 0.00 | 29 | |
| 20260504224028 | 27 | 247 | 4.8 | 11.3 | 0.00 | 0.00 | 0.00 | 28 | |
| 20260504223525 | 27 | 296 | 4.8 | 19.3 | 0.00 | 0.00 | 0.00 | 28 | |
| 20260504223020 | 27 | 252 | 4.8 | 22.5 | 0.00 | 0.00 | 0.00 | 27 | |
| 20260504222517 | 27 | 199 | 4.8 | 12.9 | 0.00 | 0.00 | 0.00 | 27 | |
| 20260504222015 | 28 | 285 | 4.8 | 8.0 | 0.00 | 0.00 | 0.00 | 29 | |
| 20260504221512 | 27 | 153 | 3.2 | 19.3 | 0.00 | 0.00 | 0.00 | 29 | |
| 20260504221009 | 27 | 252 | 4.8 | 12.9 | 0.00 | 0.00 | 0.00 | 28 | |
| 20260504220505 | 27 | 237 | 3.2 | 19.3 | 0.00 | 0.00 | 0.00 | 29 | |
| 20260504220002 | 27 | 203 | 3.2 | 17.7 | 0.00 | 0.00 | 0.00 | 29 | |
| 20260504215459 | 27 | 224 | 6.4 | 16.1 | 0.00 | 0.00 | 0.00 | 29 | |
| 20260504214956 | 27 | 203 | 3.2 | 12.9 | 0.00 | 0.00 | 0.00 | 28 | |
| 20260504214452 | 27 | 216 | 6.4 | 11.3 | 0.00 | 0.00 | 0.00 | 30 | |
| 20260504213949 | 27 | 258 | 14.5 | 17.7 | 0.00 | 0.00 | 0.00 | 30 | |
| 20260504213444 | 27 | 331 | 3.2 | 14.5 | 0.00 | 0.00 | 0.00 | 30 | |
| 20260504212942 | 27 | 166 | 4.8 | 16.1 | 0.00 | 0.00 | 0.00 | 29 | |
| 20260504212438 | 27 | 236 | 4.8 | 17.7 | 0.00 | 0.00 | 0.00 | 30 | |
| 20260504211936 | 27 | 207 | 6.4 | 14.5 | 0.00 | 0.00 | 0.00 | 29 | |
| 20260504211432 | 27 | 217 | 4.8 | 14.5 | 0.00 | 0.00 | 0.00 | 31 | |
| 20260504210930 | 27 | 260 | 11.3 | 22.5 | 0.00 | 0.00 | 0.00 | 29 | |
| 20260504210426 | 26 | 246 | 4.8 | 16.1 | 0.00 | 0.00 | 0.00 | 30 | |
| 20260504205923 | 26 | 297 | 3.2 | 14.5 | 0.00 | 0.00 | 0.00 | 30 | |
| 20260504205421 | 26 | 264 | 8.0 | 22.5 | 0.00 | 0.00 | 0.00 | 29 | |
| 20260504204919 | 26 | 279 | 8.0 | 17.7 | 0.00 | 0.00 | 0.00 | 30 | |
| 20260504204417 | 27 | 250 | 4.8 | 12.9 | 0.00 | 0.00 | 0.00 | 30 | |
| 20260504203916 | 26 | 261 | 6.4 | 19.3 | 0.00 | 0.00 | 0.00 | 30 | |
| 20260504203413 | 27 | 279 | 6.4 | 12.9 | 0.00 | 0.00 | 0.00 | 30 | |
| 20260504202909 | 27 | 173 | 3.2 | 9.7 | 0.00 | 0.00 | 0.00 | 30 | |
| 20260504202406 | 26 | 224 | 6.4 | 29.0 | 0.00 | 0.00 | 0.00 | 30 | |
| 20260504201902 | 26 | 238 | 3.2 | 12.9 | 0.00 | 0.00 | 0.00 | 31 | |
| 20260504201400 | 27 | 119 | 4.8 | 12.9 | 0.00 | 0.00 | 0.00 | 29 | |
| 20260504200857 | 27 | 212 | 8.0 | 12.9 | 0.00 | 0.00 | 0.00 | 30 | |
| 20260504200354 | 26 | 206 | 8.0 | 14.5 | 0.00 | 0.00 | 0.00 | 31 | |
| 20260504195850 | 26 | 238 | 3.2 | 16.1 | 0.00 | 0.00 | 0.00 | 31 | |
| 20260504195346 | 26 | 220 | 8.0 | 16.1 | 0.00 | 0.00 | 0.00 | 30 | |
| 20260504194843 | 26 | 213 | 1.6 | 9.7 | 0.00 | 0.00 | 0.00 | 31 | |
| 20260504194339 | 26 | 189 | 4.8 | 9.7 | 0.00 | 0.00 | 0.00 | 32 | |
| 20260504193835 | 26 | 239 | 3.2 | 11.3 | 0.00 | 0.00 | 0.00 | 31 | |
| 20260504193332 | 26 | 276 | 4.8 | 12.9 | 0.00 | 0.00 | 0.00 | 32 | |
| 20260504192831 | 25 | 293 | 6.4 | 25.7 | 0.00 | 0.00 | 0.00 | 32 | |
| 20260504192329 | 25 | 198 | 0.0 | 9.7 | 0.00 | 0.00 | 0.00 | 33 | |
| 20260504191827 | 25 | 189 | 6.4 | 14.5 | 0.00 | 0.00 | 0.00 | 31 | |
| 20260504191324 | 25 | 290 | 3.2 | 11.3 | 0.00 | 0.00 | 0.00 | 32 | |
| 20260504190819 | 25 | 249 | 4.8 | 20.9 | 0.00 | 0.00 | 0.00 | 32 | |
| 20260504190316 | 25 | 224 | 8.0 | 9.7 | 0.00 | 0.00 | 0.00 | 32 | |
| 20260504185812 | 25 | 290 | 3.2 | 9.7 | 0.00 | 0.00 | 0.00 | 33 | |
| 20260504185309 | 25 | 241 | 0.0 | 14.5 | 0.00 | 0.00 | 0.00 | 32 | |
| 20260504184805 | 25 | 283 | 6.4 | 11.3 | 0.00 | 0.00 | 0.00 | 33 | |
| 20260504184301 | 25 | 284 | 4.8 | 14.5 | 0.00 | 0.00 | 0.00 | 32 | |
| 20260504183757 | 25 | 233 | 3.2 | 6.4 | 0.00 | 0.00 | 0.00 | 33 | |
| 20260504183254 | 25 | 159 | 1.6 | 14.5 | 0.00 | 0.00 | 0.00 | 33 | |
| 20260504182752 | 25 | 282 | 3.2 | 8.0 | 0.00 | 0.00 | 0.00 | 33 | |
| 20260504182249 | 25 | 269 | 3.2 | 14.5 | 0.00 | 0.00 | 0.00 | 32 | |
| 20260504181747 | 25 | 195 | 3.2 | 11.3 | 0.00 | 0.00 | 0.00 | 32 | |
| 20260504181244 | 25 | 204 | 4.8 | 16.1 | 0.00 | 0.00 | 0.00 | 33 | |
| 20260504180743 | 24 | 348 | 1.6 | 6.4 | 0.00 | 0.00 | 0.00 | 34 | |
| 20260504180241 | 24 | 206 | 3.2 | 8.0 | 0.00 | 0.00 | 0.00 | 34 | |
| 20260504175739 | 24 | 187 | 3.2 | 17.7 | 0.00 | 0.00 | 0.00 | 34 | |
| 20260504175235 | 24 | 338 | 0.0 | 8.0 | 0.00 | 0.00 | 0.00 | 34 | |
| 20260504174733 | 24 | 284 | 3.2 | 4.8 | 0.00 | 0.00 | 0.00 | 34 | |
| 20260504174231 | 24 | 290 | 3.2 | 11.3 | 0.00 | 0.00 | 0.00 | 34 | |
| 20260504173727 | 25 | 95 | 3.2 | 4.8 | 0.00 | 0.00 | 0.00 | 33 | |
| 20260504173224 | 24 | 256 | 0.0 | 4.8 | 0.00 | 0.00 | 0.00 | 34 | |
| 20260504172721 | 23 | 193 | 4.8 | 8.0 | 0.00 | 0.00 | 0.00 | 35 | |
| 20260504172217 | 23 | 215 | 3.2 | 16.1 | 0.00 | 0.00 | 0.00 | 35 | |
| 20260504171714 | 23 | 229 | 0.0 | 8.0 | 0.00 | 0.00 | 0.00 | 37 | |
| 20260504171211 | 22 | 303 | 0.0 | 6.4 | 0.00 | 0.00 | 0.00 | 42 | |
| 20260504170707 | 23 | 17 | 0.0 | 3.2 | 0.00 | 0.00 | 0.00 | 38 | |
| 20260504170205 | 22 | 205 | 0.0 | 3.2 | 0.00 | 0.00 | 0.00 | 40 | |
| 20260504160124 | 18 | 69 | 0.0 | 3.2 | 0.00 | 0.00 | 0.00 | 53 | |
| 20260504151050 | 14 | 89 | 0.0 | 1.6 | 0.00 | 0.00 | 0.00 | 66 | |
| 20260504150548 | 13 | 106 | 0.0 | 3.2 | 0.00 | 0.00 | 0.00 | 67 | |
| 20260504141014 | 7 | 282 | 0.0 | 1.6 | 0.00 | 0.00 | 0.00 | 88 | |
| 20260504140510 | 7 | 327 | 0.0 | 3.2 | 0.00 | 0.00 | 0.00 | 88 | |
| 20260504130435 | 6 | 305 | 0.0 | 3.2 | 0.00 | 0.00 | 0.00 | 88 | |
| 20260504110322 | 7 | 211 | 0.0 | 3.2 | 0.00 | 0.00 | 0.00 | 81 | |
| 20260504100240 | 8 | 58 | 0.0 | 1.6 | 0.00 | 0.00 | 0.00 | 73 | |
| 20260504081633 | 11 | 245 | 0.0 | 4.8 | 0.00 | 0.00 | 0.00 | 64 | |
| 20260504081129 | 11 | 283 | 0.0 | 4.8 | 0.00 | 0.00 | 0.00 | 63 | |
| 20260504080626 | 11 | 269 | 0.0 | 4.8 | 0.00 | 0.00 | 0.00 | 62 | |
| 20260504080122 | 11 | 285 | 3.2 | 3.2 | 0.00 | 0.00 | 0.00 | 61 | |
| 20260504050438 | 16 | 187 | 0.0 | 3.2 | 0.00 | 0.00 | 0.00 | 55 | |
| 20260504045936 | 16 | 278 | 0.0 | 1.6 | 0.00 | 0.00 | 0.00 | 55 | |
| 20260504045431 | 16 | 223 | 0.0 | 3.2 | 0.00 | 0.00 | 0.00 | 52 | |
| 20260504044927 | 17 | 294 | 0.0 | 3.2 | 0.00 | 0.00 | 0.00 | 51 | |
| 20260504044425 | 17 | 318 | 1.6 | 3.2 | 0.00 | 0.00 | 0.00 | 49 | |
| 20260504043922 | 18 | 240 | 0.0 | 1.6 | 0.00 | 0.00 | 0.00 | 47 | |
| 20260504043419 | 18 | 283 | 0.0 | 6.4 | 0.00 | 0.00 | 0.00 | 44 | |
| 20260504042917 | 18 | 336 | 0.0 | 3.2 | 0.00 | 0.00 | 0.00 | 43 | |
| 20260504042413 | 18 | 241 | 0.0 | 8.0 | 0.00 | 0.00 | 0.00 | 43 | |
| 20260504041909 | 18 | 253 | 1.6 | 4.8 | 0.00 | 0.00 | 0.00 | 42 | |
| 20260504041406 | 19 | 234 | 3.2 | 6.4 | 0.00 | 0.00 | 0.00 | 42 | |
| 20260504040902 | 19 | 208 | 0.0 | 3.2 | 0.00 | 0.00 | 0.00 | 42 | |
| 20260504040359 | 20 | 253 | 0.0 | 4.8 | 0.00 | 0.00 | 0.00 | 40 | |
| 20260504035855 | 19 | 261 | 3.2 | 6.4 | 0.00 | 0.00 | 0.00 | 41 | |
| 20260504035353 | 20 | 269 | 0.0 | 4.8 | 0.00 | 0.00 | 0.00 | 41 | |
| 20260504034849 | 20 | 269 | 0.0 | 3.2 | 0.00 | 0.00 | 0.00 | 41 | |
| 20260504034347 | 20 | 292 | 3.2 | 4.8 | 0.00 | 0.00 | 0.00 | 38 | |
| 20260504033844 | 20 | 177 | 1.6 | 9.7 | 0.00 | 0.00 | 0.00 | 38 | |
| 20260504033342 | 20 | 288 | 1.6 | 11.3 | 0.00 | 0.00 | 0.00 | 37 | |
| 20260504032838 | 21 | 243 | 0.0 | 3.2 | 0.00 | 0.00 | 0.00 | 37 | |
| 20260504032336 | 21 | 249 | 0.0 | 4.8 | 0.00 | 0.00 | 0.00 | 36 | |
| 20260504031832 | 21 | 234 | 3.2 | 8.0 | 0.00 | 0.00 | 0.00 | 35 | |
| 20260504031330 | 22 | 210 | 1.6 | 4.8 | 0.00 | 0.00 | 0.00 | 34 | |
| 20260504030826 | 22 | 241 | 4.8 | 6.4 | 0.00 | 0.00 | 0.00 | 33 | |
| 20260504030323 | 22 | 239 | 3.2 | 8.0 | 0.00 | 0.00 | 0.00 | 33 | |
| 20260504025819 | 22 | 230 | 3.2 | 11.3 | 0.00 | 0.00 | 0.00 | 32 | |
| 20260504025317 | 22 | 250 | 3.2 | 11.3 | 0.00 | 0.00 | 0.00 | 32 | |
| 20260504024813 | 22 | 257 | 4.8 | 6.4 | 0.00 | 0.00 | 0.00 | 31 | |
| 20260504024309 | 22 | 202 | 0.0 | 4.8 | 0.00 | 0.00 | 0.00 | 31 | |
| 20260504023806 | 23 | 235 | 1.6 | 8.0 | 0.00 | 0.00 | 0.00 | 31 | |
| 20260504023303 | 23 | 351 | 0.0 | 9.7 | 0.00 | 0.00 | 0.00 | 31 | |
| 20260504022759 | 23 | 279 | 0.0 | 8.0 | 0.00 | 0.00 | 0.00 | 31 | |
| 20260504022255 | 23 | 269 | 0.0 | 11.3 | 0.00 | 0.00 | 0.00 | 31 | |
| 20260504021752 | 23 | 227 | 3.2 | 9.7 | 0.00 | 0.00 | 0.00 | 31 | |
| 20260504021250 | 24 | 209 | 4.8 | 14.5 | 0.00 | 0.00 | 0.00 | 31 | |
| 20260504020746 | 24 | 277 | 0.0 | 9.7 | 0.00 | 0.00 | 0.00 | 32 | |
| 20260504020243 | 25 | 222 | 0.0 | 4.8 | 0.00 | 0.00 | 0.00 | 32 | |
| 20260504015739 | 25 | 214 | 3.2 | 4.8 | 0.00 | 0.00 | 0.00 | 31 | |
| 20260504015236 | 25 | 188 | 4.8 | 11.3 | 0.00 | 0.00 | 0.00 | 30 | |
| 20260504014731 | 26 | 255 | 1.6 | 11.3 | 0.00 | 0.00 | 0.00 | 29 | |
| 20260504014228 | 26 | 355 | 3.2 | 17.7 | 0.00 | 0.00 | 0.00 | 28 | |
| 20260504013726 | 27 | 224 | 3.2 | 4.8 | 0.00 | 0.00 | 0.00 | 27 | |
| 20260504013224 | 27 | 280 | 3.2 | 4.8 | 0.00 | 0.00 | 0.00 | 27 | |
| 20260504012720 | 27 | 197 | 3.2 | 6.4 | 0.00 | 0.00 | 0.00 | 27 | |
| 20260504012218 | 27 | 172 | 3.2 | 6.4 | 0.00 | 0.00 | 0.00 | 27 | |
| 20260504011714 | 27 | 264 | 3.2 | 16.1 | 0.00 | 0.00 | 0.00 | 26 | |
| 20260504011211 | 27 | 267 | 3.2 | 8.0 | 0.00 | 0.00 | 0.00 | 27 | |
| 20260504010707 | 27 | 202 | 3.2 | 9.7 | 0.00 | 0.00 | 0.00 | 26 | |
| 20260504010203 | 27 | 245 | 1.6 | 8.0 | 0.00 | 0.00 | 0.00 | 26 | |
| 20260504005659 | 27 | 189 | 3.2 | 11.3 | 0.00 | 0.00 | 0.00 | 26 |